Radiation Dose at Monitoring Post of Fukushima Daini Nuclear Power Station
Date,Time,MP-1(microSv/h),MP-2(microSv/h),MP-3(microSv/h),MP-4(microSv/h),MP-5(microSv/h),MP-6(microSv/h),MP-7(microSv/h),Wind Direction,Wind Velocity(m/s),Rain
2024/06/15,00:00,0.150,0.134,0.218,0.203,0.210,0.118,0.077,north,2.8,No
2024/06/15,00:10,0.151,0.133,0.217,0.201,0.210,0.118,0.077,north,2.0,No
2024/06/15,00:20,0.149,0.134,0.217,0.203,0.210,0.117,0.077,north,1.3,No
2024/06/15,00:30,0.151,0.133,0.217,0.202,0.211,0.119,0.077,north,1.9,No
2024/06/15,00:40,0.150,0.134,0.218,0.203,0.208,0.118,0.077,north,1.5,No
2024/06/15,00:50,0.150,0.133,0.218,0.203,0.210,0.118,0.077,north-northwest,1.6,No
2024/06/15,01:00,0.150,0.133,0.218,0.203,0.209,0.120,0.077,north-northwest,1.4,No
2024/06/15,01:10,0.150,0.133,0.217,0.203,0.210,0.118,0.077,north,1.1,No
2024/06/15,01:20,0.151,0.134,0.217,0.203,0.210,0.118,0.077,north,1.6,No
2024/06/15,01:30,0.150,0.133,0.217,0.203,0.210,0.118,0.077,north-northwest,1.7,No
2024/06/15,01:40,0.151,0.133,0.217,0.204,0.211,0.118,0.077,north,1.7,No
2024/06/15,01:50,0.149,0.134,0.217,0.203,0.209,0.118,0.077,north-northeast,0.6,No
2024/06/15,02:00,0.152,0.133,0.217,0.203,0.209,0.118,0.077,-,CALM,No
2024/06/15,02:10,0.150,0.134,0.217,0.204,0.208,0.118,0.078,north-northeast,0.9,No
2024/06/15,02:20,0.150,0.133,0.216,0.203,0.210,0.119,0.077,north-northeast,0.9,No
2024/06/15,02:30,0.151,0.133,0.218,0.204,0.210,0.119,0.077,north-northeast,0.8,No
2024/06/15,02:40,0.149,0.133,0.216,0.202,0.210,0.119,0.077,north,1.1,No
2024/06/15,02:50,0.152,0.134,0.218,0.204,0.210,0.118,0.077,north,0.8,No
2024/06/15,03:00,0.150,0.134,0.217,0.202,0.208,0.117,0.077,north-northwest,1.5,No
2024/06/15,03:10,0.152,0.135,0.219,0.203,0.210,0.118,0.077,north-northwest,1.7,No
2024/06/15,03:20,0.151,0.133,0.216,0.203,0.208,0.118,0.077,north-northwest,2.1,No
2024/06/15,03:30,0.149,0.135,0.218,0.202,0.210,0.118,0.078,north-northwest,1.6,No
2024/06/15,03:40,0.152,0.135,0.217,0.204,0.210,0.119,0.078,north-northwest,1.7,No
2024/06/15,03:50,0.150,0.134,0.217,0.201,0.207,0.118,0.078,north-northwest,2.0,No
2024/06/15,04:00,0.150,0.134,0.217,0.204,0.210,0.117,0.077,northwest,1.4,No
2024/06/15,04:10,0.150,0.134,0.216,0.202,0.210,0.119,0.078,northwest,1.1,No
2024/06/15,04:20,0.151,0.134,0.219,0.202,0.211,0.118,0.077,-,CALM,No
2024/06/15,04:30,0.151,0.134,0.216,0.204,0.211,0.119,0.077,-,CALM,No
2024/06/15,04:40,0.150,0.133,0.218,0.201,0.209,0.117,0.078,-,CALM,No
2024/06/15,04:50,0.150,0.134,0.217,0.205,0.211,0.118,0.077,-,CALM,No
2024/06/15,05:00,0.150,0.133,0.216,0.202,0.210,0.119,0.079,north,0.8,No
2024/06/15,05:10,0.149,0.134,0.217,0.202,0.208,0.118,0.078,northwest,1.0,No
2024/06/15,05:20,0.150,0.133,0.216,0.203,0.211,0.118,0.077,north-northwest,1.6,No
2024/06/15,05:30,0.150,0.135,0.217,0.202,0.209,0.119,0.077,northwest,1.9,No
2024/06/15,05:40,0.151,0.134,0.217,0.204,0.211,0.118,0.078,north-northwest,1.9,No
2024/06/15,05:50,0.151,0.133,0.216,0.203,0.209,0.119,0.078,north-northwest,1.5,No
2024/06/15,06:00,0.149,0.134,0.218,0.201,0.207,0.118,0.077,north-northeast,0.8,No
2024/06/15,06:10,0.150,0.133,0.217,0.203,0.210,0.118,0.077,north-northwest,0.6,No
2024/06/15,06:20,0.150,0.131,0.216,0.202,0.209,0.119,0.078,north-northeast,0.6,No
2024/06/15,06:30,0.148,0.133,0.217,0.200,0.207,0.117,0.077,north-northwest,0.7,No
2024/06/15,06:40,0.150,0.133,0.214,0.204,0.210,0.118,0.077,-,CALM,No
2024/06/15,06:50,0.150,0.134,0.216,0.202,0.209,0.118,0.077,north-northeast,0.8,No
2024/06/15,07:00,0.148,0.132,0.216,0.200,0.207,0.118,0.075,east,1.1,No
2024/06/15,07:10,0.149,0.132,0.214,0.203,0.207,0.117,0.076,east-southeast,1.0,No
2024/06/15,07:20,0.150,0.132,0.214,0.202,0.210,0.118,0.077,east-southeast,0.8,No
2024/06/15,07:30,0.148,0.132,0.216,0.200,0.208,0.117,0.077,southeast,0.8,No
2024/06/15,07:40,0.150,0.132,0.216,0.200,0.207,0.116,0.076,east,1.0,No
2024/06/15,07:50,0.150,0.132,0.215,0.203,0.206,0.117,0.075,east,1.9,No
2024/06/15,08:00,0.149,0.133,0.214,0.203,0.210,0.118,0.076,east-southeast,1.6,No
2024/06/15,08:10,0.148,0.132,0.213,0.201,0.208,0.116,0.076,east-southeast,1.2,No
2024/06/15,08:20,0.148,0.132,0.212,0.199,0.208,0.117,0.075,east-southeast,2.1,No
2024/06/15,08:30,0.150,0.131,0.216,0.200,0.205,0.118,0.075,southeast,2.0,No
2024/06/15,08:40,0.149,0.133,0.216,0.200,0.209,0.116,0.076,east-southeast,1.7,No
2024/06/15,08:50,0.147,0.132,0.215,0.201,0.209,0.116,0.075,south-southeast,2.1,No
2024/06/15,09:00,0.149,0.132,0.214,0.201,0.207,0.118,0.075,south-southeast,2.1,No
2024/06/15,09:10,0.149,0.132,0.216,0.200,0.205,0.117,0.075,south-southeast,2.3,No
2024/06/15,09:20,0.149,0.133,0.214,0.202,0.208,0.116,0.076,south-southeast,2.9,No
2024/06/15,09:30,0.147,0.131,0.214,0.203,0.209,0.117,0.075,south-southeast,2.7,No
2024/06/15,09:40,0.149,0.131,0.215,0.201,0.207,0.117,0.075,south-southeast,4.1,No
2024/06/15,09:50,0.149,0.132,0.217,0.200,0.207,0.116,0.076,south-southeast,4.7,No
2024/06/15,10:00,0.148,0.132,0.216,0.200,0.205,0.116,0.075,south-southeast,5.8,No
2024/06/15,10:10,0.147,0.132,0.214,0.202,0.205,0.116,0.075,south-southeast,6.5,No
2024/06/15,10:20,0.147,0.131,0.213,0.202,0.205,0.117,0.074,south-southeast,7.1,No
2024/06/15,10:30,0.147,0.131,0.213,0.200,0.205,0.116,0.075,south-southeast,7.1,No
2024/06/15,10:40,0.146,0.131,0.214,0.201,0.205,0.116,0.074,south-southeast,7.9,No
2024/06/15,10:50,0.147,0.131,0.213,0.200,0.206,0.116,0.075,south-southeast,7.3,No
2024/06/15,11:00,0.148,0.130,0.213,0.200,0.206,0.116,0.074,south-southeast,7.9,No
2024/06/15,11:10,0.148,0.130,0.213,0.199,0.205,0.115,0.075,south-southeast,8.6,No
2024/06/15,11:20,0.148,0.131,0.214,0.200,0.206,0.116,0.075,south-southeast,9.2,No
2024/06/15,11:30,0.147,0.130,0.214,0.198,0.205,0.116,0.074,south-southeast,9.6,No
2024/06/15,11:40,0.149,0.130,0.214,0.200,0.205,0.116,0.075,south-southeast,9.0,No
2024/06/15,11:50,0.148,0.131,0.214,0.199,0.207,0.116,0.075,south-southeast,9.3,No
2024/06/15,12:00,0.148,0.129,0.214,0.200,0.206,0.116,0.075,south,9.5,No
2024/06/15,12:10,0.147,0.130,0.214,0.200,0.206,0.116,0.074,south,10.3,No
2024/06/15,12:20,0.147,0.131,0.213,0.199,0.207,0.116,0.075,south-southeast,10.9,No
2024/06/15,12:30,0.148,0.131,0.214,0.200,0.207,0.117,0.075,south-southeast,10.9,No
2024/06/15,12:40,0.147,0.131,0.215,0.201,0.206,0.116,0.075,south,10.4,No
2024/06/15,12:50,0.147,0.132,0.215,0.200,0.207,0.116,0.075,south-southeast,11.5,No
2024/06/15,13:00,0.148,0.131,0.215,0.199,0.207,0.116,0.074,south-southeast,9.3,No
2024/06/15,13:10,0.149,0.131,0.215,0.201,0.207,0.116,0.074,south,9.8,No
2024/06/15,13:20,0.148,0.131,0.215,0.200,0.206,0.117,0.074,south-southeast,9.5,No
2024/06/15,13:30,0.148,0.131,0.214,0.200,0.207,0.117,0.075,south-southeast,8.9,No
2024/06/15,13:40,0.148,0.131,0.215,0.200,0.208,0.117,0.074,south-southeast,10.4,No
2024/06/15,13:50,0.148,0.131,0.215,0.200,0.207,0.116,0.074,south,9.3,No
2024/06/15,14:00,0.149,0.131,0.214,0.199,0.206,0.116,0.075,south-southeast,10.3,No
2024/06/15,14:10,0.147,0.130,0.213,0.199,0.206,0.116,0.075,south-southeast,9.5,No
2024/06/15,14:20,0.149,0.131,0.213,0.200,0.206,0.116,0.076,south-southeast,10.1,No
2024/06/15,14:30,0.149,0.131,0.214,0.200,0.207,0.116,0.075,south-southeast,10.3,No
2024/06/15,14:40,0.148,0.131,0.214,0.201,0.207,0.115,0.076,south-southeast,7.8,No
2024/06/15,14:50,0.148,0.131,0.214,0.200,0.206,0.116,0.074,south-southeast,9.2,No
2024/06/15,15:00,0.148,0.131,0.214,0.200,0.207,0.116,0.074,south-southeast,8.8,No
2024/06/15,15:10,0.148,0.131,0.215,0.200,0.206,0.116,0.074,south-southeast,7.4,No
2024/06/15,15:20,0.147,0.131,0.214,0.199,0.207,0.116,0.074,south-southeast,8.2,No
2024/06/15,15:30,0.147,0.131,0.214,0.199,0.207,0.117,0.075,south-southeast,8.3,No
2024/06/15,15:40,0.149,0.131,0.215,0.200,0.206,0.116,0.075,south-southeast,7.8,No
2024/06/15,15:50,0.148,0.131,0.213,0.203,0.207,0.116,0.075,south-southeast,8.4,No
2024/06/15,16:00,0.146,0.133,0.214,0.203,0.206,0.117,0.075,south,8.6,No
2024/06/15,16:10,0.147,0.132,0.218,0.200,0.205,0.116,0.074,south-southeast,8.2,No
2024/06/15,16:20,0.147,0.132,0.216,0.200,0.206,0.117,0.075,south-southeast,8.7,No
2024/06/15,16:30,0.147,0.131,0.215,0.203,0.205,0.116,0.075,south-southeast,10.1,No
2024/06/15,16:40,0.148,0.133,0.214,0.203,0.206,0.116,0.074,south-southeast,10.0,No
2024/06/15,16:50,0.150,0.132,0.217,0.201,0.209,0.116,0.076,south,9.5,No
2024/06/15,17:00,0.148,0.131,0.216,0.200,0.210,0.116,0.074,south,9.2,No
2024/06/15,17:10,0.148,0.131,0.214,0.202,0.208,0.116,0.075,south,9.2,No
2024/06/15,17:20,0.149,0.133,0.216,0.203,0.206,0.116,0.075,south-southeast,9.2,No
2024/06/15,17:30,0.150,0.131,0.215,0.200,0.209,0.116,0.075,south-southeast,9.2,No
2024/06/15,17:40,0.147,0.131,0.214,0.203,0.208,0.116,0.075,south,9.3,No
2024/06/15,17:50,0.149,0.132,0.215,0.203,0.207,0.116,0.075,south,8.7,No
2024/06/15,18:00,0.150,0.131,0.217,0.201,0.208,0.116,0.074,south,8.4,No
2024/06/15,18:10,0.149,0.131,0.214,0.202,0.210,0.117,0.075,south-southeast,8.1,No
2024/06/15,18:20,0.147,0.132,0.216,0.202,0.208,0.116,0.076,south-southeast,7.7,No
2024/06/15,18:30,0.150,0.132,0.217,0.201,0.208,0.115,0.075,south,8.1,No
2024/06/15,18:40,0.148,0.131,0.214,0.202,0.208,0.116,0.075,south-southeast,7.6,No
2024/06/15,18:50,0.147,0.133,0.216,0.202,0.207,0.117,0.075,south-southeast,8.3,No
2024/06/15,19:00,0.149,0.131,0.216,0.200,0.208,0.117,0.074,south-southeast,7.5,No
2024/06/15,19:10,0.148,0.132,0.215,0.203,0.207,0.117,0.075,south-southeast,8.4,No
2024/06/15,19:20,0.148,0.131,0.216,0.202,0.206,0.116,0.075,south,8.2,No
2024/06/15,19:30,0.150,0.131,0.215,0.201,0.208,0.117,0.075,south-southeast,8.2,No
2024/06/15,19:40,0.149,0.133,0.216,0.203,0.208,0.117,0.075,south-southeast,8.1,No
2024/06/15,19:50,0.149,0.132,0.216,0.201,0.206,0.116,0.075,south-southeast,8.3,No
2024/06/15,20:00,0.149,0.132,0.216,0.202,0.209,0.117,0.075,south,8.2,No
2024/06/15,20:10,0.148,0.132,0.216,0.202,0.206,0.116,0.075,south,8.5,No
2024/06/15,20:20,0.150,0.131,0.214,0.200,0.208,0.116,0.075,south,8.1,No
2024/06/15,20:30,0.148,0.133,0.217,0.203,0.208,0.117,0.075,south,8.2,No
2024/06/15,20:40,0.148,0.131,0.215,0.201,0.206,0.117,0.075,south,9.2,No
2024/06/15,20:50,0.150,0.132,0.215,0.202,0.210,0.116,0.075,south,8.1,No
2024/06/15,21:00,0.149,0.132,0.216,0.203,0.207,0.116,0.076,south,8.1,No
2024/06/15,21:10,0.148,0.131,0.215,0.201,0.207,0.116,0.074,south,6.7,No
2024/06/15,21:20,0.149,0.132,0.217,0.202,0.209,0.116,0.076,south,6.1,No
2024/06/15,21:30,0.149,0.131,0.215,0.201,0.206,0.116,0.075,south,5.1,No
2024/06/15,21:40,0.149,0.131,0.215,0.200,0.208,0.117,0.075,south,5.6,No
2024/06/15,21:50,0.149,0.133,0.216,0.203,0.209,0.116,0.075,south,4.9,No
2024/06/15,22:00,0.148,0.131,0.214,0.202,0.206,0.116,0.075,south,5.8,No
2024/06/15,22:10,0.150,0.132,0.217,0.201,0.207,0.116,0.075,south,6.1,No
2024/06/15,22:20,0.149,0.131,0.214,0.202,0.208,0.116,0.075,south,5.5,No
2024/06/15,22:30,0.148,0.132,0.217,0.200,0.207,0.116,0.075,south,5.8,No
2024/06/15,22:40,0.149,0.133,0.216,0.202,0.209,0.116,0.075,south,5.9,No
2024/06/15,22:50,0.148,0.131,0.215,0.202,0.205,0.116,0.074,south,5.3,No
2024/06/15,23:00,0.149,0.132,0.215,0.201,0.209,0.117,0.075,south,5.7,No
2024/06/15,23:10,0.149,0.131,0.215,0.202,0.206,0.116,0.075,south,6.4,No
2024/06/15,23:20,0.148,0.131,0.216,0.200,0.206,0.116,0.074,south,5.1,No
2024/06/15,23:30,0.150,0.132,0.217,0.202,0.208,0.116,0.075,south,4.1,No
2024/06/15,23:40,0.148,0.131,0.215,0.203,0.207,0.116,0.075,south,3.6,No
2024/06/15,23:50,0.149,0.132,0.216,0.201,0.208,0.117,0.075,south,3.9,No
